Location: �perlecques
(50.8057°N, 2.1521°E)
Time: 11:50:17
(UTC+00:00)

Tiros 1 - All Passes

Search period start: 03 August 2021 00:00
Search period end: 13 August 2021 00:00
Orbit: 630 x 664 km, 48.4° (Epoch: 02 August)

Date Brightness Start Highest point End Pass type
(mag) Time Alt. Az. Time Alt. Az. Time Alt. Az.
03 Aug - 17:15:09 10° SSW 17:19:21 31° SSE 17:23:31 10° E daylight
03 Aug - 18:56:23 10° WSW 19:01:07 61° S 19:05:46 10° E daylight
03 Aug - 20:38:25 10° W 20:43:07 60° S 20:47:45 10° ESE visible
03 Aug - 22:20:45 10° W 22:24:50 29° SSW 22:28:52 10° SSE visible
04 Aug - 16:00:27 10° S 16:03:35 17° SE 16:06:43 10° E daylight
04 Aug - 17:40:28 10° SW 17:45:02 46° SSE 17:49:35 10° E daylight
04 Aug - 19:22:14 10° W 19:26:58 67° S 19:31:41 10° E daylight
04 Aug - 21:04:23 10° W 21:08:55 46° SSW 21:13:25 10° SE visible
04 Aug - 22:47:15 10° W 22:50:21 17° SW 22:53:25 10° S visible
05 Aug - 16:24:59 10° SSW 16:29:07 29° SSE 16:33:14 10° E daylight
05 Aug - 18:06:08 10° WSW 18:10:51 60° S 18:15:31 10° E daylight
05 Aug - 19:48:08 10° W 19:52:52 62° S 19:57:31 10° ESE daylight
05 Aug - 21:30:26 10° W 21:34:36 31° SSW 21:38:44 10° SSE visible
06 Aug - 15:10:24 10° S 15:13:23 16° SE 15:16:21 10° ESE daylight
06 Aug - 16:50:14 10° SW 16:54:48 44° SSE 16:59:19 10° E daylight
06 Aug - 18:31:57 10° W 18:36:43 67° S 18:41:26 10° E daylight
06 Aug - 20:14:05 10° W 20:18:40 48° SSW 20:23:12 10° SE visible
06 Aug - 21:56:52 10° W 22:00:08 19° SW 22:03:23 10° S visible
07 Aug - 15:34:48 10° SSW 15:38:52 28° SSE 15:42:57 10° E daylight
07 Aug - 17:15:52 10° WSW 17:20:35 59° SSE 17:25:17 10° E daylight
07 Aug - 18:57:51 10° W 19:02:36 63° S 19:07:17 10° ESE daylight
07 Aug - 20:40:08 10° W 20:44:23 32° SSW 20:48:34 10° SE visible
08 Aug - 14:20:23 10° S 14:23:10 15° SE 14:25:56 10° ESE daylight
08 Aug - 16:00:01 10° SW 16:04:32 42° SSE 16:09:03 10° E daylight
08 Aug - 17:41:41 10° W 17:46:27 67° S 17:51:10 10° E daylight
08 Aug - 19:23:48 10° W 19:28:26 50° SSW 19:33:00 10° ESE daylight
08 Aug - 21:06:30 10° W 21:09:55 20° SW 21:13:19 10° S visible
09 Aug - 14:44:39 10° SSW 14:48:39 26° SSE 14:52:38 10° E daylight
09 Aug - 16:25:36 10° WSW 16:30:19 57° SSE 16:35:01 10° E daylight
09 Aug - 18:07:35 10° W 18:12:20 64° S 18:17:02 10° ESE daylight
09 Aug - 19:49:50 10° W 19:54:08 34° SSW 19:58:24 10° SE visible
09 Aug - 21:34:27 10° SW 21:35:18 10° SW 21:36:09 10° SW visible
10 Aug - 13:30:24 10° S 13:32:57 14° SE 13:35:30 10° ESE daylight
10 Aug - 15:09:47 10° SW 15:14:17 41° SSE 15:18:47 10° E daylight
10 Aug - 16:51:25 10° WSW 16:56:11 66° S 17:00:56 10° E daylight
10 Aug - 18:33:31 10° W 18:38:10 51° SSW 18:42:46 10° ESE daylight
10 Aug - 20:16:09 10° W 20:19:43 21° SW 20:23:15 10° SSE visible
11 Aug - 13:54:30 10° SSW 13:58:25 25° SSE 14:02:19 10° E daylight
11 Aug - 15:35:21 10° WSW 15:40:03 56° SSE 15:44:45 10° E daylight
11 Aug - 17:17:18 10° W 17:22:04 65° S 17:26:48 10° ESE daylight
11 Aug - 18:59:31 10° W 19:03:54 36° SSW 19:08:14 10° SE daylight
11 Aug - 20:43:35 10° WSW 20:45:06 11° SW 20:46:37 10° SSW visible
12 Aug - 12:40:27 10° SSE 12:42:44 13° SE 12:45:02 10° ESE daylight
12 Aug - 14:19:34 10° SW 14:24:02 39° SSE 14:28:30 10° E daylight
12 Aug - 16:01:08 10° WSW 16:05:55 66° S 16:10:40 10° E daylight
12 Aug - 17:43:14 10° W 17:47:55 53° SSW 17:52:33 10° ESE daylight
12 Aug - 19:25:47 10° W 19:29:29 23° SW 19:33:10 10° SSE daylight
